SCP
0 0 0 0 0 0 0 0 0 0 0 0 0 0 0 1 1 1 0 1 1 2 2 2 2 4 4 4 4 3 3 3 3 2 2 2 1 1 1 1 1 1 0 0 0 0 1 1 0
0 0 0 0 0 0 0 0 0 0 0 0 0 0 0 1 1 1 1 1 2 2 2 2 2 3 4 4 4 4 3 3 3 2 2 2 1 1 1 1 1 1 1 1 1 1 1 1 1
0 0 0 1 1 0 0 0 0 0 0 1 1 1 1 1 1 1 1 2 2 2 2 2 2 3 4 4 4 4 3 3 3 3 2 2 1 1 1 1 1 1 1 1 1 1 1 1 1
0 0 1 1 1 0 0 0 0 1 1 1 1 1 1 1 1 1 2 3 3 3 2 2 2 3 4 4 4 4 3 3 3 3 3 2 2 1 1 1 1 1 1 1 1 1 1 1 1
0 1 1 1 0 0 0 0 0 1 1 1 1 1 1 1 1 1 2 3 3 3 2 2 3 3 4 4 3 3 3 3 3 3 3 2 2 1 1 1 1 1 1 1 1 1 1 0 0
0 0 1 1 0 0 0 0 0 0 0 1 1 1 2 2 2 2 4 4 4 3 2 3 3 3 4 4 3 3 3 3 3 3 3 3 2 2 1 1 1 1 1 1 1 1 0 0 0
0 0 0 0 0 0 0 0 0 0 0 1 1 2 2 2 2 3 5 6 5 4 3 3 3 3 4 4 4 3 3 3 3 3 3 3 2 2 1 1 1 1 1 1 1 1 0 0 0
0 0 0 0 0 0 0 0 0 0 1 1 2 2 3 3 3 3 4 6 6 5 4 4 3 3 4 4 4 3 3 3 3 3 3 3 3 2 2 2 2 2 2 1 1 1 0 0 0
0 0 0 0 0 0 0 0 0 1 1 1 2 3 4 4 4 4 4 5 5 5 5 4 4 4 4 4 4 3 3 2 2 2 2 3 3 3 2 2 2 2 1 1 1 0 0 0 0
0 0 0 0 0 0 0 0 0 1 1 1 2 3 5 5 5 4 3 4 5 6 6 5 4 4 4 4 4 4 3 3 2 2 2 3 3 3 2 2 1 1 1 1 0 0 0 0 0
0 0 0 0 0 0 0 0 0 0 1 1 2 3 4 4 4 3 3 3 5 7 7 7 5 5 5 5 5 5 4 3 3 2 2 3 3 3 2 2 1 1 1 0 0 0 0 0 0
0 0 0 0 0 0 0 0 0 0 0 1 2 3 3 3 3 2 2 3 5 7 8 7 6 6 5 6 6 6 5 4 3 3 3 3 3 3 2 2 1 1 0 0 0 0 0 0 0
0 0 0 0 0 0 0 0 0 0 0 1 3 4 3 2 2 2 2 3 4 6 8 7 7 6 6 6 7 6 6 5 4 4 3 3 3 3 2 2 1 1 0 0 0 0 0 0 0
0 0 0 0 0 0 0 0 0 0 1 2 4 4 3 2 2 2 2 3 3 3 5 6 7 6 6 6 6 6 6 6 5 5 4 3 3 3 2 2 1 0 0 0 0 0 0 0 0
0 0 0 0 0 0 0 0 0 0 0 2 3 3 3 2 1 1 2 2 2 2 3 5 6 6 6 6 6 6 6 6 6 5 5 4 3 3 3 2 1 0 0 0 0 0 0 0 0
0 0 0 0 0 0 0 0 0 0 1 1 2 2 2 2 1 1 1 2 2 2 2 4 6 6 6 6 6 6 6 6 6 6 5 4 3 3 3 2 1 0 0 0 0 0 0 0 0
0 0 0 0 0 0 0 0 0 0 1 1 2 2 2 2 1 1 1 1 1 2 2 3 5 6 6 5 5 6 6 5 6 6 6 5 4 4 3 3 1 0 0 0 0 0 0 0 0
0 0 0 0 0 0 0 0 0 0 1 1 1 1 1 1 1 1 1 1 1 2 2 3 4 6 6 5 5 5 4 4 5 6 6 5 4 4 4 3 2 1 0 0 0 0 0 0 0
0 0 0 0 0 0 0 0 0 0 0 1 1 1 0 0 1 1 1 1 1 2 2 2 3 4 5 5 5 4 4 4 4 5 5 5 5 5 4 3 2 1 0 0 0 0 0 0 0
0 0 0 0 0 0 0 0 0 0 0 0 0 0 0 0 0 1 1 1 1 2 2 2 3 3 4 4 4 4 4 3 3 4 5 6 6 6 5 4 2 1 0 0 0 0 0 0 0
0 0 0 0 0 0 0 0 0 0 0 0 0 0 0 0 0 1 1 2 2 2 3 3 3 3 3 3 3 3 3 3 3 3 4 5 6 6 6 5 3 1 1 1 1 0 0 0 0
0 0 0 0 0 0 0 0 0 0 0 0 0 0 0 0 0 0 1 2 3 3 4 4 4 3 2 2 2 2 2 2 2 3 4 5 6 6 6 5 3 1 1 1 1 1 1 1 0
0 0 0 0 0 0 0 0 0 0 0 0 0 0 0 0 0 0 1 2 3 4 5 5 4 3 2 1 2 1 1 1 1 2 3 4 5 6 6 5 3 1 1 1 1 1 1 1 1
0 0 0 0 0 0 0 0 0 0 0 0 0 0 0 0 0 0 1 2 3 4 5 6 5 3 1 1 1 1 1 1 1 1 2 3 4 5 5 4 2 1 1 1 1 1 1 0 0
0 0 0 0 0 0 0 0 0 0 0 0 0 0 0 0 0 0 0 1 3 4 6 6 6 3 1 1 1 1 1 0 1 1 1 1 3 4 4 3 2 1 1 1 1 1 0 0 0
0 0 0 0 0 0 0 0 0 0 0 0 0 0 0 0 0 0 0 1 2 4 6 6 6 4 1 0 0 1 1 0 0 1 1 1 1 2 2 2 1 1 0 0 0 0 0 0 0
0 0 0 0 0 0 0 0 0 0 0 0 0 0 0 0 0 0 0 0 2 3 5 6 5 3 1 0 0 0 0 0 1 1 1 1 1 1 1 1 1 1 0 0 0 0 0 0 0
0 0 0 0 0 0 0 0 0 0 0 0 0 0 0 0 0 0 0 0 1 2 4 5 4 3 1 0 0 0 0 1 1 1 1 1 0 0 0 0 1 1 0 0 0 0 0 0 0
0 0 0 0 0 0 0 0 0 0 0 0 0 0 0 0 0 0 0 0 0 2 3 3 3 2 1 1 0 0 0 1 1 2 1 1 0 0 1 1 1 0 0 0 0 0 0 0 0
0 0 0 0 0 0 0 0 0 0 0 0 0 0 0 0 0 0 0 0 0 1 2 2 2 2 1 1 0 0 0 1 1 2 1 1 1 0 1 1 1 1 0 0 0 0 0 0 0
Wind_Speed
7 4 2 4 6 4 3 4 2 1 1 0 2 6 7 5 3 4 2 6 9 8 7 8 10 10 10 10 10 10 10 10 10 10 10 9 9 9 9 9 9 10 10 10 10 11 11 11 12
3 2 4 5 5 1 5 4 3 3 3 3 3 5 6 3 2 5 4 6 9 8 7 8 10 10 10 10 10 10 10 10 9 9 9 9 9 9 8 8 9 9 9 10 10 10 10 10 10
3 2 4 4 3 5 4 3 4 2 1 2 4 4 4 3 3 4 5 9 9 7 6 8 10 11 10 10 10 10 10 9 9 9 8 8 9 8 8 8 9 8 9 9 9 9 9 9 9
3 4 5 3 4 6 4 3 2 2 2 3 4 4 3 2 2 4 8 9 9 7 6 7 10 11 10 10 10 10 9 9 9 8 8 8 8 8 8 8 8 8 8 8 8 9 9 8 8
4 4 3 1 5 5 3 2 2 2 1 2 4 4 2 4 3 8 9 9 9 7 6 6 9 10 10 10 10 9 9 8 8 8 8 8 8 8 8 7 7 7 7 8 8 8 7 8 8
4 4 3 4 5 4 3 2 0 1 1 2 4 4 1 1 6 7 8 8 8 8 6 6 8 9 9 9 9 9 8 8 8 7 7 7 8 7 7 7 7 7 7 7 7 7 7 7 7
4 4 4 5 4 3 3 1 1 2 1 1 4 5 2 0 3 6 8 8 7 7 6 4 4 5 7 7 7 7 7 7 7 7 7 7 7 6 7 6 6 6 6 6 6 6 6 6 6
4 4 2 3 4 4 2 0 0 2 1 0 4 7 5 4 4 7 7 6 6 5 5 4 4 3 4 4 6 6 6 7 7 6 6 6 6 5 5 5 5 6 6 5 5 5 5 5 5
3 3 3 5 4 3 1 1 2 1 3 3 2 2 4 8 7 8 6 5 5 5 4 4 4 3 3 3 4 5 5 6 6 5 6 5 3 3 3 3 4 5 5 5 5 4 4 4 4
4 4 7 4 2 2 1 0 0 2 3 2 4 4 5 8 8 8 7 6 6 5 4 4 4 4 3 3 3 2 3 3 3 3 3 2 2 2 3 4 4 4 4 3 3 3 3 3 2
4 5 4 3 2 1 0 1 0 3 1 3 4 5 6 6 7 7 7 6 6 6 5 4 4 4 4 2 2 2 2 2 2 3 3 2 2 2 2 1 2 2 2 1 1 1 1 1 1
2 2 2 2 2 1 1 0 1 2 4 4 6 9 7 7 7 7 7 6 5 5 5 4 4 4 3 3 2 2 2 2 2 2 2 2 2 1 1 1 1 1 1 1 1 0 0 1 1
2 2 1 2 1 1 0 1 1 3 3 2 5 6 6 7 6 4 4 5 5 5 5 5 4 4 3 3 2 2 2 2 2 2 2 2 2 2 1 1 1 1 1 1 1 0 0 0 0
2 1 2 2 2 1 1 3 1 5 1 2 4 5 5 6 6 4 3 3 4 4 4 4 5 4 4 3 2 2 2 2 2 2 2 2 2 2 2 1 1 1 0 0 1 1 1 0 0
1 1 4 3 2 1 0 4 4 5 2 2 3 4 5 5 5 6 6 5 5 4 3 4 5 4 4 4 3 2 2 2 2 2 2 2 2 2 2 2 1 0 0 1 1 1 1 1 1
2 2 2 4 1 1 2 6 5 3 3 3 3 3 3 4 4 5 5 4 4 4 3 3 4 4 4 4 3 2 2 2 2 2 2 2 2 2 2 2 1 1 1 1 1 1 1 1 1
2 1 3 4 1 0 2 6 5 2 3 4 4 3 3 3 3 3 4 4 4 4 4 4 3 4 4 3 3 2 2 2 2 1 1 2 2 2 2 2 1 1 1 1 1 1 1 1 0
3 3 3 4 3 1 4 7 7 4 3 5 4 4 4 4 5 4 4 4 3 3 4 4 3 3 3 2 2 1 1 1 1 1 1 2 2 2 2 2 2 2 2 1 1 1 1 1 1
3 2 4 5 3 2 6 9 9 6 4 5 5 5 6 6 4 3 3 3 3 3 3 3 3 2 2 2 2 2 1 1 1 1 2 2 2 2 3 2 2 2 2 2 2 1 1 1 1
2 3 3 4 3 2 5 9 8 6 6 7 7 7 7 5 3 3 3 3 3 3 3 4 3 3 2 2 2 2 2 1 1 1 1 2 2 2 2 3 3 2 2 2 2 2 1 0 1
3 3 3 4 5 3 3 7 5 4 4 3 4 5 6 7 7 5 4 4 3 3 4 4 4 3 3 2 2 2 1 1 0 1 2 2 2 2 2 2 3 3 3 3 3 3 3 2 1
4 2 3 2 2 4 0 5 7 3 3 4 5 5 5 5 6 6 6 5 4 4 3 3 3 3 3 3 3 3 3 2 3 2 2 2 2 2 2 2 2 3 3 3 3 3 2 3 2
4 2 2 2 1 3 1 3 9 2 4 5 5 6 5 5 6 6 6 6 4 3 3 3 3 3 3 3 4 4 2 2 2 1 2 2 2 2 3 3 3 2 3 3 3 2 2 3 3
1 2 3 3 2 3 4 4 8 4 5 4 4 4 4 4 4 3 3 3 3 2 2 2 2 2 2 3 3 4 4 3 2 2 3 2 2 2 3 3 3 3 2 3 3 3 3 3 3
3 4 3 4 2 6 2 4 8 5 3 3 3 3 3 3 3 3 3 4 3 3 3 2 3 2 3 3 3 4 5 5 5 4 4 3 2 2 3 3 3 3 3 3 3 3 3 3 4
3 5 5 4 5 5 2 6 6 3 2 2 1 1 0 1 2 3 4 4 4 4 3 3 3 3 3 3 4 4 4 4 3 4 3 4 3 3 3 3 3 3 3 2 2 2 3 2 3
3 3 4 3 1 3 5 5 6 2 3 3 3 2 1 1 1 2 2 2 3 4 4 4 4 3 3 3 3 3 4 4 4 3 3 3 3 3 3 3 4 3 3 3 2 2 2 2 2
2 3 3 3 3 4 5 5 5 4 5 4 3 2 2 2 1 1 1 2 2 3 2 3 3 3 3 3 3 3 4 4 4 3 3 3 3 2 3 3 3 3 3 3 3 2 2 2 2
1 1 2 2 3 4 4 6 3 4 4 3 3 3 2 2 2 2 2 2 1 1 1 2 2 2 2 2 2 2 3 3 3 3 4 4 3 3 3 3 3 3 3 3 3 2 2 2 2
3 4 4 3 4 3 3 7 3 2 2 2 3 3 3 2 2 2 2 1 1 1 1 2 2 2 3 2 2 2 2 2 3 3 3 3 3 3 3 3 3 3 3 3 3 3 3 3 3
Wind_Direction
330 337 54 56 57 53 248 253 222 190 127 216 91 97 105 106 125 148 140 134 132 136 139 135 128 124 119 114 110 108 106 106 104 101 99 97 96 95 94 93 92 91 88 88 87 87 89 89 87
335 0 53 60 92 154 261 249 220 219 184 154 89 83 81 80 84 112 125 136 131 132 134 133 127 125 121 117 113 110 107 108 107 104 101 99 97 97 97 97 98 95 90 90 88 89 91 91 89
334 53 79 77 136 193 225 227 211 224 221 111 77 59 90 119 134 146 152 136 124 125 127 129 126 125 121 119 115 112 109 107 106 105 105 102 99 98 99 102 104 100 96 93 91 90 90 90 87
51 49 58 89 219 228 218 229 192 144 36 53 101 70 57 24 159 145 133 127 119 119 120 127 126 126 125 122 118 116 112 109 107 106 105 104 103 99 97 102 103 103 101 98 95 92 90 87 86
59 77 78 225 241 251 239 239 206 131 117 59 94 104 55 350 93 118 124 122 123 120 121 128 125 126 124 122 119 118 115 113 111 107 105 104 104 103 99 101 104 104 104 101 98 96 93 87 85
59 74 114 218 242 261 270 254 165 109 124 99 101 111 111 37 113 124 121 119 123 126 126 127 123 121 120 120 119 118 117 115 113 110 107 105 105 105 106 106 106 107 108 104 102 99 95 87 84
109 115 179 210 229 255 263 258 145 133 126 213 131 115 127 201 136 124 117 116 116 120 119 117 125 122 119 119 118 117 118 115 111 109 106 104 101 103 103 109 109 107 109 108 106 101 99 93 85
130 117 194 224 215 241 272 43 141 141 175 358 110 138 178 196 146 118 110 110 114 116 119 118 113 118 126 123 115 113 112 109 103 97 94 93 92 94 100 99 108 110 109 111 109 104 100 95 87
100 97 210 224 209 230 289 60 351 356 88 51 48 148 165 140 128 118 112 107 119 123 124 129 125 120 118 127 122 118 111 105 101 94 89 87 85 85 91 98 102 106 107 108 110 109 100 90 84
107 169 221 227 208 213 311 61 186 44 50 50 33 42 101 126 134 140 143 147 149 152 147 142 144 142 132 129 124 124 118 114 105 103 98 91 85 74 79 85 93 93 94 101 107 108 95 78 74
152 191 220 251 251 231 292 324 298 126 212 200 172 157 143 143 148 157 165 163 166 164 157 154 153 153 145 138 133 127 120 119 112 108 109 102 91 80 70 81 77 72 64 63 72 67 72 89 91
162 237 219 260 314 333 242 269 355 190 225 215 175 162 157 164 172 177 179 174 165 160 165 163 154 150 152 143 143 137 134 134 131 127 119 116 112 106 103 100 90 79 78 82 67 69 96 94 111
203 242 264 266 319 304 337 267 218 262 254 166 144 147 163 172 178 178 175 164 158 161 169 167 156 152 150 145 151 136 145 149 146 140 139 128 129 136 137 138 113 107 106 129 119 118 123 131 173
204 231 297 294 293 300 248 270 195 255 227 135 148 172 181 179 170 151 154 164 166 170 175 167 160 159 148 145 147 154 155 152 146 147 151 140 136 145 145 141 127 112 132 142 156 169 154 174 165
83 29 326 291 262 254 124 290 236 236 164 160 187 187 174 177 168 169 177 183 181 175 168 163 162 154 151 149 147 155 155 146 150 159 156 150 142 147 147 141 137 145 121 99 98 110 107 98 101
46 54 301 288 233 259 144 256 262 231 166 203 209 190 187 193 188 182 173 172 182 161 150 156 152 151 157 157 156 155 154 149 157 159 155 161 158 149 145 148 164 168 121 110 115 102 106 97 102
29 223 249 290 262 150 187 251 272 258 185 210 208 199 197 208 211 194 175 162 176 166 152 147 145 155 164 165 156 148 153 153 154 143 151 167 162 163 157 164 166 147 130 126 134 105 120 131 107
211 219 247 253 268 240 242 254 272 261 205 212 212 206 205 209 217 201 184 163 159 163 147 142 144 148 154 156 131 120 115 155 147 152 164 165 168 166 161 163 159 146 137 132 127 127 96 128 154
184 210 257 262 255 239 246 261 268 257 219 220 225 216 211 218 218 185 173 155 140 149 141 141 144 153 148 154 162 170 189 202 185 189 177 173 175 172 164 166 166 162 163 169 158 142 136 114 104
227 255 269 288 299 264 273 275 269 247 223 213 216 220 213 206 202 190 173 162 161 165 159 157 161 166 165 173 181 177 172 198 206 210 196 186 186 182 176 176 178 179 169 165 166 146 139 171 138
239 220 244 269 322 318 312 301 273 267 235 223 219 217 208 192 188 187 180 179 168 173 180 178 182 175 174 162 138 110 87 49 249 218 214 205 193 191 187 189 187 185 177 183 190 173 162 181 222
242 219 224 258 323 293 1 291 287 265 259 240 238 224 212 200 188 186 180 182 185 192 187 179 178 171 175 169 165 164 178 200 222 217 219 222 201 194 187 189 193 193 187 190 198 187 183 174 193
227 234 230 237 215 295 270 230 283 303 260 252 241 236 226 207 189 188 187 188 188 183 177 173 165 169 175 177 180 176 191 211 215 208 209 218 217 204 195 189 191 197 198 197 198 189 190 186 191
196 39 28 45 81 267 231 192 276 264 251 264 255 249 233 209 191 183 182 171 175 170 167 166 160 180 182 175 181 184 193 204 199 211 214 219 226 221 205 195 196 199 200 202 201 192 190 195 193
84 88 28 353 340 250 230 203 253 273 277 254 251 256 234 203 178 172 173 179 183 182 182 185 177 198 203 189 192 196 200 204 207 211 213 214 216 228 217 205 201 203 205 202 201 190 194 198 190
183 150 164 205 230 275 273 227 253 283 310 341 333 271 172 186 189 194 195 191 191 191 189 190 195 210 211 205 205 202 201 206 215 214 213 215 219 225 220 206 197 201 199 196 195 199 200 195 190
161 195 182 153 234 269 267 277 296 330 352 358 0 13 307 244 219 213 208 204 202 200 203 200 201 213 218 216 209 206 207 207 214 218 212 217 222 221 214 210 197 198 195 189 188 203 208 188 191
166 158 124 157 191 248 275 265 255 294 308 325 336 333 306 297 273 254 229 228 228 223 221 207 205 216 221 217 211 213 211 209 206 206 215 218 222 221 212 213 203 196 193 184 181 194 197 181 199
154 155 160 180 191 194 253 265 238 243 273 294 297 295 294 279 260 261 262 258 255 247 225 223 222 222 225 224 219 213 217 214 207 209 216 212 208 206 209 205 200 194 193 189 185 195 197 190 197
195 188 162 180 237 207 217 264 279 272 298 308 307 305 299 288 283 269 270 282 291 271 253 239 235 228 231 227 215 214 214 208 211 216 218 210 207 206 203 198 193 197 195 193 191 197 201 199 204